"Pseudo-MPEC" for P10Hpir

Created 2018 Apr 20 15:18:05 UT using Find_Orb

Click here for an explanation of pseudo-MPECs

 
 Astrometry: 
     P10Hpir  C2018 04 16a0AstrometryZjZdsx;W689Ra1K6EJI7BQ$SyC;L+6?lJ*@yw87kF51
     P10Hpir  C2018 04 16DSVpi!@mm=xqpw:fIh9?[cIU?RXnwVGTLj/G]d[N4XB[BCtbX7e3F51
     P10Hpir  C2018 04 16Wh?i\=y]KLMZM177Fe%%-Z:*#il5Z1HkSg4i*4L/`Tj3e[$eF]D-F51
     P10Hpir  C2018 04 16=_7tN]/bI1TyhF]Lmredacted;7OEr-1rkUYbnq7v._W294e[ZH^F51
     P10Hpir |C2018 04 19`og,*fX7Q*(-dEU5\RC\7!n*5YeI\#/Q$P8b=JyHU\Us'e.==+y.807
     P10Hpir |C2018 04 19,Hlu[WDq5.#m^;UUeT$tj3GKxUhoaB#GjoC%'AQpOTchoC4L!c=i807
     P10Hpir |C2018 04 190hg@W7[Sn(w%EGSov-XdVvbEc.?Rbt8ssee1sLYIw[%v(3k%@ICQ807
     P10Hpir  C2018 04 20.09184 15 25 00.11 -04 18 30.7          21.0 VSNEOCP033
     P10Hpir  C2018 04 20.09535 15 24 59.53 -04 18 16.9          20.8 VSNEOCP033
     P10Hpir  C2018 04 20.09888 15 24 58.95 -04 18 03.8          20.6 VSNEOCP033
     P10Hpir  C2018 04 20.10240 15 24 58.36 -04 17 50.0          20.8 VSNEOCP033
     P10Hpir  C2018 04 20.10593 15 24 57.78 -04 17 36.4          20.3 VSNEOCP033
     P10Hpir KC2018 04 20y+vI*uU]);0nh\Nj_KeH.x9gr=1#pyrs]nO`+XUMCR!hlLnWN/hD734
     P10Hpir KC2018 04 20[+U_!%^NyBBN\'`7w34*hvop-CM1qwp\L+A^=vfy#MjU:$_][5RQ734
     P10Hpir KC2018 04 20BuX^a)51cL]IG]-dYt=7!-F;e_xFt*RdTAnCRWo6MhZ-bwxNEOCP734
     P10Hpir  C2018 04 20.39914 15 24 10.92 -03 58 40.8                UNEOCPI52
     P10Hpir  C2018 04 20.40246 15 24 10.42 -03 58 27.5                UNEOCPI52
     P10Hpir  C2018 04 20.40411 15 24 10.14 -03 58 21.6          20.8 GUNEOCPI52

Station data:
(033) Karl Schwarzschild Observatory, Tautenburg  (N50.980140 E11.711240)
   Germany. 1.3-m Schmidt.
(734) Farpoint Observatory, Eskridge  (N38.890107 W96.001400)  US/Kansas.
   Observer G. Hug. .3 meter s-c + CCD.
(807) Cerro Tololo Observatory, La Serena  (S30.169136 W70.805900)  Chile.
   Observers M. Holman, J. Kavelaars, T. Grav, W. Fraser. Measurer M. Holman.
   4-m Blanco reflector + CCD.
(F51) Pan-STARRS 1, Haleakala  (N20.707235 W156.255910)  US/Hawaii.
   Observers N. Primak, A. Schultz, S. Watters, J. Thiel, T. Goggia. Measurer
   PS1 Science Consortium. 1.8-m Ritchey-Chrétien + CCD.
(I52) Steward Observatory, Mt. Lemmon Station  (N32.442547 W110.788920)
   US/Arizona.

Orbital elements:  P10Hpir
   Perihelion 2017 Dec 14.069918 +/- 0.0985 TT =  1:40:40 (JD 2458101.569918)
Epoch 2018 Apr 20.0 TT = JDT 2458228.5   Earth MOID: 0.1617   Ve: 0.0717
M  98.32354 +/- 0.35                (J2000 ecliptic)          AutoNEOCP
n   0.77462760 +/- 0.00264          Peri.  232.47599 +/- 0.12
a   1.17419638 +/- 0.00267          Node   208.17216 +/- 0.06
e   0.3782771 +/- 0.0015            Incl.   29.34193 +/- 0.24
P   1.27/464.73d           H 21.4   G  0.15   U  8.8  
q 0.73002474 +/- 0.000314    Q 1.61836801 +/- 0.00543
From 18 observations 2018 Apr. 16-20; mean residual 0".33
Residuals in arcseconds: 
180416 F51  .11+  .13+    180419 807  .05+  .54+    180420 734  .03+  .14+    
180416 F51  .16+  .15-    180420 033  .00   .38-    180420 734  .11+  .03+    
180416 F51  .16-  .23+    180420 033  .02+  .14-    180420 734  .37+  .51-    
180416 F51  .02+  .18-    180420 033  .09+  .68-    180420 I52  .66-  .35+    
180419 807  .34-  .23-    180420 033  .02-  .48-    180420 I52  .20+  .87+    
180419 807  .14-  .07+    180420 033  .05+  .52-    180420 I52  .16+  .43+    

Ephemerides (geocentric):
Date (UTC) HH   RA              Dec         delta   r     elong  mag " sig PA
---- -- -- --  ------------   ------------  ------ ------ -----  --- ---- ---
2018 04 20 15  15 23 34.956   -03 44 00.96  .40245 1.3824 156.1 21.0  .12 116
2018 04 20 16  15 23 28.272   -03 41 21.27  .40254 1.3826 156.2 21.0  .13 113
2018 04 20 17  15 23 21.588   -03 38 41.66  .40263 1.3828 156.2 21.0  .14 111
2018 04 20 18  15 23 14.904   -03 36 02.16  .40273 1.3830 156.3 21.0  .15 109
2018 04 20 19  15 23 08.220   -03 33 22.74  .40282 1.3831 156.3 21.0  .16 107
2018 04 20 20  15 23 01.535   -03 30 43.43  .40291 1.3833 156.4 21.0  .17 105
2018 04 20 21  15 22 54.851   -03 28 04.21  .40301 1.3835 156.4 21.0  .18 103
2018 04 20 22  15 22 48.166   -03 25 25.09  .40311 1.3837 156.4 21.0  .20 102
2018 04 20 23  15 22 41.481   -03 22 46.06  .40320 1.3839 156.5 21.0  .21 101
2018 04 21 00  15 22 34.796   -03 20 07.13  .40330 1.3841 156.5 21.0  .22  99
2018 04 21 01  15 22 28.111   -03 17 28.30  .40340 1.3843 156.6 21.0  .23  98
2018 04 21 02  15 22 21.426   -03 14 49.57  .40350 1.3845 156.6 21.0  .24  97
2018 04 21 03  15 22 14.741   -03 12 10.94  .40360 1.3846 156.6 21.0  .25  96
2018 04 21 04  15 22 08.056   -03 09 32.41  .40369 1.3848 156.7 21.0  .27  95
2018 04 21 05  15 22 01.371   -03 06 53.98  .40379 1.3850 156.7 21.0  .28  95
2018 04 21 06  15 21 54.686   -03 04 15.65  .40390 1.3852 156.8 21.0  .29  94
2018 04 21 07  15 21 48.001   -03 01 37.43  .40400 1.3854 156.8 21.0  .31  93
2018 04 21 08  15 21 41.316   -02 58 59.30  .40410 1.3856 156.8 21.0  .32  92
2018 04 21 09  15 21 34.631   -02 56 21.28  .40420 1.3858 156.9 21.0  .33  92
2018 04 21 10  15 21 27.947   -02 53 43.36  .40430 1.3859 156.9 21.0  .35  91
2018 04 21 11  15 21 21.262   -02 51 05.55  .40441 1.3861 157.0 21.0  .36  91
2018 04 21 12  15 21 14.578   -02 48 27.84  .40451 1.3863 157.0 21.0  .38  90
2018 04 21 13  15 21 07.894   -02 45 50.23  .40461 1.3865 157.0 21.0  .39  90
2018 04 21 14  15 21 01.210   -02 43 12.74  .40472 1.3867 157.1 21.0  .40  89
2018 04 21 15  15 20 54.526   -02 40 35.34  .40482 1.3869 157.1 21.0  .42  89
2018 04 21 16  15 20 47.843   -02 37 58.06  .40493 1.3871 157.1 21.0  .43  88
2018 04 21 17  15 20 41.160   -02 35 20.88  .40504 1.3872 157.2 21.0  .45  88
2018 04 21 18  15 20 34.477   -02 32 43.80  .40514 1.3874 157.2 21.0  .46  87
2018 04 21 19  15 20 27.795   -02 30 06.84  .40525 1.3876 157.2 21.0  .48  87
2018 04 21 20  15 20 21.113   -02 27 29.99  .40536 1.3878 157.3 21.0  .50  87
2018 04 21 21  15 20 14.431   -02 24 53.24  .40547 1.3880 157.3 21.0  .51  86
2018 04 21 22  15 20 07.750   -02 22 16.60  .40558 1.3882 157.4 21.0  .53  86
2018 04 21 23  15 20 01.069   -02 19 40.08  .40569 1.3884 157.4 21.0  .54  85
2018 04 22 00  15 19 54.388   -02 17 03.66  .40580 1.3885 157.4 21.0  .56  85
2018 04 22 01  15 19 47.708   -02 14 27.36  .40591 1.3887 157.5 21.0  .58  85
2018 04 22 02  15 19 41.029   -02 11 51.17  .40602 1.3889 157.5 21.0  .59  85
2018 04 22 03  15 19 34.350   -02 09 15.09  .40613 1.3891 157.5 21.0  .61  84
2018 04 22 04  15 19 27.671   -02 06 39.12  .40624 1.3893 157.6 21.0  .63  84
2018 04 22 05  15 19 20.993   -02 04 03.27  .40636 1.3895 157.6 21.0  .64  84
2018 04 22 06  15 19 14.316   -02 01 27.53  .40647 1.3897 157.6 21.0  .66  83
2018 04 22 07  15 19 07.639   -01 58 51.91  .40659 1.3898 157.7 21.0  .68  83
2018 04 22 08  15 19 00.963   -01 56 16.40  .40670 1.3900 157.7 21.0  .70  83
2018 04 22 09  15 18 54.287   -01 53 41.01  .40682 1.3902 157.7 21.0  .71  83
2018 04 22 10  15 18 47.612   -01 51 05.73  .40693 1.3904 157.8 21.0  .73  82
2018 04 22 11  15 18 40.938   -01 48 30.57  .40705 1.3906 157.8 21.0  .75  82
2018 04 22 12  15 18 34.264   -01 45 55.52  .40716 1.3908 157.8 21.0  .77  82
2018 04 22 13  15 18 27.591   -01 43 20.59  .40728 1.3910 157.9 21.0  .79  82
2018 04 22 14  15 18 20.919   -01 40 45.78  .40740 1.3911 157.9 21.0  .81  81